Probability
0 0 0 0 0 0 0 0 0 1 2 3 3 2 2 2 2 1 1 1 3 5 8 12 13 13 11 7 5 5 6 6 4 2 0 0 0 0 0 0 0 0 0 0
0 0 0 0 0 0 0 0 1 2 3 3 2 1 1 1 1 1 1 2 4 7 9 11 11 11 10 8 7 6 6 6 5 3 1 0 0 0 0 0 1 1 1 1
0 0 0 0 0 0 0 1 2 3 3 2 1 0 0 0 0 0 1 3 7 9 11 11 9 8 9 9 9 8 8 7 6 3 2 1 1 1 1 1 2 3 3 3
0 0 0 0 0 0 0 1 2 3 2 1 0 0 0 0 0 0 1 4 8 10 11 10 8 6 7 8 8 8 8 8 6 4 4 4 4 2 2 2 2 4 5 6
0 0 0 0 0 0 0 1 2 1 1 0 0 0 0 0 0 0 1 4 8 10 10 9 7 5 4 4 5 6 7 7 6 5 6 7 6 4 2 1 2 3 5 5
0 0 0 0 0 0 0 1 1 0 0 0 0 0 0 0 0 0 1 4 7 10 10 7 5 4 2 3 4 4 5 5 4 4 6 7 6 5 3 2 2 2 2 3
0 0 0 0 0 0 0 0 0 0 0 0 0 0 0 0 0 1 2 4 7 8 7 5 4 3 2 3 4 3 3 3 2 2 4 6 6 6 5 4 4 3 2 2
0 0 0 0 0 0 0 0 0 0 0 0 0 0 0 0 0 1 3 5 6 6 5 4 5 5 4 4 5 3 3 2 2 1 3 6 8 8 9 8 6 5 4 4
0 0 0 0 0 0 0 0 0 0 0 0 0 0 0 0 0 2 4 5 6 5 5 6 7 7 7 8 7 3 2 3 3 3 5 8 10 11 11 9 8 6 6 5
0 0 0 0 0 0 0 0 0 0 0 0 0 0 0 0 1 3 4 4 5 5 6 8 9 10 10 10 8 4 3 4 5 5 7 9 10 10 9 8 8 6 5 4
0 0 0 0 0 0 0 0 0 0 0 0 0 0 0 0 1 3 3 3 4 5 7 10 11 11 11 10 8 6 6 7 8 7 7 8 8 6 6 6 7 7 6 4
0 0 0 0 0 0 0 0 0 0 0 0 0 0 0 0 0 1 1 2 4 5 8 11 12 12 10 9 9 9 10 11 11 10 8 7 6 5 4 5 6 8 7 5
0 0 0 0 0 0 0 0 0 0 0 0 0 0 0 0 0 0 0 2 3 5 7 10 12 12 10 9 9 10 12 13 13 13 11 9 8 7 5 5 6 7 7 7
0 0 0 0 0 0 0 0 0 0 0 0 0 0 0 1 1 1 2 3 4 5 5 6 8 9 9 8 7 8 10 11 12 14 14 12 10 8 7 6 6 6 7 7
0 0 0 0 0 0 0 0 0 0 0 0 0 0 0 1 2 3 3 4 5 6 5 5 7 8 8 6 5 5 7 9 12 14 15 14 12 10 8 7 7 6 7 7
0 0 0 0 0 0 0 0 0 0 0 0 0 0 0 2 3 4 4 4 5 7 7 6 7 8 7 6 4 5 7 9 11 14 15 15 13 11 10 8 6 5 5 6
0 0 0 0 0 0 0 0 0 0 0 0 0 0 1 3 4 4 4 4 5 7 8 7 6 7 7 6 6 7 9 11 11 12 13 14 13 12 11 8 4 4 4 4
0 0 0 0 0 0 0 0 0 0 0 0 0 1 2 4 4 4 5 5 6 7 8 7 7 6 6 6 7 9 11 12 12 12 12 12 12 12 10 7 5 5 5 4
0 0 0 0 0 0 0 1 1 0 0 0 2 3 3 3 3 3 4 4 4 5 7 8 7 7 6 7 9 12 14 14 13 12 11 11 12 12 10 7 6 6 6 5
0 0 0 0 0 0 1 2 1 0 0 1 3 4 3 2 2 2 2 1 1 3 5 7 6 6 7 9 12 14 15 14 12 10 9 10 11 11 9 8 7 6 7 7
0 0 0 0 0 0 1 2 1 0 0 1 3 4 2 1 1 1 1 0 0 2 5 6 5 6 8 10 13 14 13 12 9 7 7 7 8 8 8 7 6 6 6 6
0 0 0 0 0 0 0 1 1 0 0 1 2 2 1 0 0 0 0 0 0 1 3 4 3 4 5 7 9 9 9 8 7 5 5 5 5 5 6 6 6 5 5 5
0 0 0 0 0 0 0 0 0 0 0 1 1 1 0 0 0 0 0 0 0 0 1 1 1 1 2 3 3 4 5 5 4 4 3 3 3 4 4 5 6 5 5 6
0 0 0 0 0 0 0 0 0 0 0 0 0 1 1 0 0 0 0 0 0 1 1 1 1 2 2 2 2 3 3 4 3 3 3 2 3 3 4 5 6 7 7 7
0 0 0 0 0 0 0 0 0 0 0 0 1 2 2 1 0 0 0 0 0 1 1 1 1 2 2 3 3 3 3 2 2 1 2 2 3 4 5 6 6 5 5 6
0 0 0 0 0 0 0 0 0 0 0 1 2 3 2 1 0 0 0 0 0 1 0 0 1 1 1 2 3 3 2 1 1 0 1 2 4 5 6 6 4 3 3 3
Wind_Speed
2 4 2 6 7 4 3 3 2 3 2 4 3 2 3 5 4 4 4 4 4 4 3 2 3 4 4 3 3 3 3 2 2 2 2 1 0 0 0 0 0 0 0 1
4 3 6 3 3 3 3 2 1 2 1 3 2 1 2 4 6 6 6 5 5 3 2 2 3 3 4 4 3 3 3 3 2 2 2 2 1 0 0 0 1 1 0 0
4 6 2 2 2 2 1 4 4 3 2 4 3 2 1 2 3 4 4 4 4 6 5 4 4 3 4 4 4 4 4 3 2 2 2 2 2 1 1 1 1 1 1 1
4 4 2 2 2 4 3 4 4 4 4 1 2 2 5 3 2 5 6 6 6 6 5 5 4 4 5 5 4 3 3 3 3 3 3 3 2 1 1 0 0 1 1 1
4 2 2 2 4 5 4 3 4 4 4 2 2 1 7 1 4 7 8 7 7 7 6 6 6 6 5 4 4 3 3 3 3 3 3 3 2 1 0 1 1 1 1 2
4 2 3 3 1 4 5 7 7 6 5 1 2 2 6 4 7 5 6 7 7 7 6 6 4 3 3 3 3 3 4 3 3 3 3 4 3 2 2 1 0 1 1 1
5 4 2 2 3 3 5 7 4 4 4 4 2 2 8 6 5 6 6 7 7 7 6 5 5 5 4 4 4 4 4 3 3 4 3 3 3 3 3 2 1 0 0 1
1 6 3 1 5 5 4 8 7 5 4 4 1 4 8 4 3 3 4 4 5 6 6 6 6 6 5 5 4 4 5 4 3 3 3 2 3 2 2 2 2 1 1 1
5 5 4 1 1 7 5 3 5 7 2 0 4 6 8 2 0 1 3 4 5 7 7 6 6 5 5 5 5 5 4 3 3 3 3 2 3 3 2 2 1 1 1 1
7 3 4 3 4 5 4 8 6 6 5 2 4 4 5 5 3 2 3 4 5 4 4 5 5 5 5 5 4 4 4 3 3 3 2 2 2 2 2 2 2 1 1 1
4 4 4 3 1 2 3 4 6 5 5 6 3 7 6 6 5 5 5 5 5 4 5 4 4 4 4 4 4 3 3 3 2 3 2 2 2 2 2 2 2 2 2 2
3 5 1 4 4 1 2 5 7 5 3 4 4 9 4 3 4 5 4 4 4 4 3 3 4 3 3 4 4 3 3 3 3 3 2 2 2 2 2 2 2 2 2 2
5 6 3 6 6 4 2 2 3 6 5 4 4 8 2 0 1 2 3 3 3 3 2 2 3 3 3 4 3 3 3 3 3 3 3 2 2 2 2 3 2 2 2 1
6 5 6 7 7 3 1 1 3 5 4 4 7 7 6 3 2 2 2 2 3 3 3 3 3 3 3 3 3 3 2 2 3 3 3 2 2 3 3 3 2 2 2 2
5 4 2 3 3 2 2 2 3 4 6 7 7 6 8 5 4 3 2 3 3 3 3 3 4 3 3 3 3 3 2 2 3 3 2 2 2 2 1 1 1 1 1 2
4 4 2 2 1 0 1 2 3 3 3 3 2 5 4 1 1 1 3 4 4 3 3 3 3 4 3 3 3 3 2 2 2 3 3 2 1 1 1 1 1 1 1 1
2 4 3 2 3 3 3 4 3 2 2 3 4 5 1 1 1 2 3 4 4 3 3 4 4 3 3 3 3 3 2 2 2 2 2 2 2 2 2 2 1 2 2 1
5 4 4 2 2 3 7 3 2 2 1 1 2 2 1 2 1 1 2 3 3 2 3 2 2 2 2 2 2 2 2 2 2 2 2 2 2 2 2 2 2 2 2 2
4 7 4 4 3 4 5 2 2 2 1 1 1 1 2 2 3 3 1 1 2 2 2 2 2 2 2 2 2 3 2 1 1 2 2 3 2 2 2 2 3 2 2 2
5 5 5 4 4 6 6 3 1 3 2 2 2 3 2 3 2 3 1 1 1 1 2 2 2 2 2 1 3 3 2 1 1 2 3 2 2 3 3 3 2 2 2 2
3 4 3 3 3 6 5 4 1 3 6 2 3 4 3 3 4 2 1 1 2 2 2 3 3 2 1 1 2 2 1 1 2 2 1 1 1 2 2 2 2 2 2 2
3 2 2 3 2 6 3 2 3 5 2 1 2 3 3 2 1 1 1 2 2 2 2 3 2 2 1 1 2 2 0 2 2 1 0 1 1 1 1 1 2 1 1 2
3 5 5 6 6 5 2 2 2 2 1 1 2 1 3 2 1 1 1 1 1 2 2 1 2 2 1 1 1 1 2 1 1 1 1 1 1 1 1 1 1 1 1 2
2 1 2 2 4 4 3 2 1 1 1 1 2 2 3 2 2 1 1 1 1 1 1 1 2 2 1 1 0 1 1 1 1 1 1 1 1 1 1 1 1 1 2 2
4 1 1 2 4 4 4 2 1 1 3 4 3 3 2 3 1 2 1 1 1 1 0 1 2 2 1 1 1 1 1 1 1 1 1 1 1 1 1 1 1 2 3 3
4 5 5 5 5 4 6 4 1 1 1 2 3 2 1 2 2 2 1 1 1 1 1 1 1 1 0 1 1 2 1 0 0 1 1 1 1 1 1 1 2 3 3 4
Wind_Direction
71 80 214 220 197 189 174 177 239 251 195 141 169 196 182 171 175 187 197 199 202 218 221 185 176 164 154 155 158 163 160 169 146 134 135 131 150 342 349 345 49 133 192 165
34 282 241 206 176 158 164 166 234 313 111 140 145 216 203 189 198 196 201 206 204 203 200 188 174 165 168 172 174 173 177 175 168 160 152 148 145 163 217 343 28 16 0 217
200 246 214 147 146 130 198 186 200 184 58 48 86 351 274 247 209 203 211 210 205 202 199 196 181 181 176 181 189 188 187 180 177 160 123 99 67 37 27 8 354 350 13 39
235 253 182 156 199 161 245 218 170 138 111 1 89 258 285 246 235 225 223 212 212 213 203 192 188 191 196 199 186 181 183 175 172 156 149 153 159 184 226 242 301 355 23 40
252 220 185 215 223 171 204 121 113 113 117 71 28 134 286 258 243 242 229 218 214 209 199 195 196 202 203 192 174 175 168 174 166 158 165 158 168 192 169 92 54 18 15 32
251 252 207 211 157 132 116 73 58 50 69 31 250 164 278 230 223 237 227 217 209 203 197 196 193 193 198 184 172 165 164 177 169 163 167 169 173 163 137 127 96 351 360 11
327 320 291 148 93 48 88 89 46 8 12 260 260 189 253 245 227 216 218 212 205 194 189 189 190 195 191 185 181 173 173 182 175 164 173 180 179 169 175 181 180 184 359 355
252 298 283 205 173 171 164 138 152 187 219 269 304 240 256 256 244 221 209 185 179 184 187 191 195 193 187 187 184 180 176 181 175 172 185 177 176 176 189 187 179 183 207 229
179 258 292 284 161 135 134 145 152 127 132 302 278 284 297 274 317 147 141 156 185 194 196 198 191 185 183 184 187 182 173 174 175 180 177 172 182 182 183 174 174 198 221 213
161 228 297 312 65 37 122 139 101 112 139 235 287 273 254 269 243 206 191 196 205 197 196 198 190 187 188 187 181 169 161 170 174 167 171 174 182 183 174 159 175 201 231 223
140 158 307 7 99 181 96 87 99 107 144 155 234 268 232 224 210 203 215 208 199 190 190 190 189 185 175 163 155 155 156 159 159 158 156 152 162 174 171 179 204 213 226 225
137 122 259 278 279 233 141 151 144 145 199 170 179 263 279 218 211 197 207 200 181 178 180 176 170 158 151 153 152 160 166 170 171 160 150 157 158 160 173 200 225 225 226 224
137 112 63 343 342 3 74 115 132 122 117 150 176 262 307 44 186 196 192 180 157 152 146 148 152 158 164 160 158 161 167 174 164 150 151 157 167 180 200 212 227 238 229 226
113 108 157 195 221 220 252 180 154 128 144 193 219 247 290 290 242 226 194 161 141 147 146 149 160 162 164 162 160 160 158 160 155 152 157 172 196 205 215 215 207 217 215 207
95 114 181 229 237 185 206 220 186 179 185 189 226 226 254 256 234 213 172 143 131 142 150 161 167 163 157 153 155 161 164 165 163 158 171 205 218 210 207 229 228 222 217 212
69 119 95 352 344 180 272 275 221 209 194 207 230 259 262 273 97 119 136 142 158 174 171 167 161 156 162 172 173 169 178 177 164 176 201 216 212 204 211 233 237 223 226 225
78 122 114 241 311 27 288 254 205 210 221 182 211 243 297 344 165 174 171 160 166 176 177 177 178 177 173 176 169 176 188 178 174 194 209 207 198 210 231 236 234 240 239 219
136 117 127 140 76 222 243 273 186 168 249 240 251 275 219 210 185 122 143 155 161 165 163 173 172 174 162 154 153 153 146 167 183 202 219 219 203 217 231 229 239 247 241 230
150 137 126 131 173 263 292 289 152 156 268 280 186 76 55 85 67 20 22 129 165 166 166 176 170 160 138 133 136 124 121 134 182 237 241 233 214 219 226 235 248 249 239 244
70 95 115 130 157 222 248 279 263 120 278 280 151 139 113 84 84 276 292 116 119 108 116 119 117 101 105 119 122 121 129 140 236 254 254 246 219 213 221 234 243 244 235 246
31 49 103 151 202 255 265 298 72 151 242 229 176 175 164 175 209 232 167 114 119 120 112 104 106 105 121 128 127 128 126 241 264 271 261 256 240 226 226 231 230 231 237 253
169 141 167 144 182 253 301 67 159 218 251 174 181 181 169 171 128 103 113 110 104 95 89 99 101 85 63 92 119 114 207 270 284 275 260 284 282 267 258 234 247 239 227 242
195 190 188 190 214 251 275 227 248 190 179 199 166 176 147 142 143 114 109 112 116 123 112 109 107 82 53 76 122 167 247 283 339 22 321 300 304 297 291 257 261 273 253 248
274 142 143 264 280 296 298 288 298 191 174 174 123 124 121 144 161 151 138 137 138 140 143 132 108 90 8 351 350 270 312 13 50 23 299 300 314 317 315 297 270 263 259 257
236 173 159 261 286 319 310 285 272 54 73 81 78 91 126 138 166 167 153 154 151 139 183 140 144 160 235 309 3 344 339 34 37 304 287 292 273 278 309 313 294 276 266 252
209 185 183 226 230 215 255 273 275 106 109 111 94 47 27 145 176 163 165 179 164 166 155 131 135 142 332 1 353 343 337 20 57 324 314 299 301 311 314 319 333 335 299 302